Location: Roland
(31.1349°N, 85.4372°W)
Time: 22:41:32
(UTC+00:00)

Tiros 1 - Pass Details

Date: 21 April 2021
Orbit: 630 x 664 km, 48.4° (Epoch: 05 May)

Event Time Altitude Azimuth Distance (km) Brightness Sun altitude
Rises 20:09:50 0° 317° (NW) 2,915 10.7 50.7°
Reaches altitude 10° 20:12:17 10° 325° (NW) 2,005 9.9 50.2°
Maximum altitude 20:16:35 39° 34° (NE) 950 8.1 49.3°
Drops below altitude 10° 20:20:55 10° 104° (ESE) 2,004 9.4 48.5°
Sets 20:23:21 0° 112° (ESE) 2,913 10.2 48.0°
